timestamp,wind_dir_avg,wind_spd_max_dir,wind_spd_avg,wind_spd_gust,battery_voltage,lat,long
2017-11-28 00:00:00+00:00,258.0,256.0,9.99,11.64,,47.59359,-54.27349
2017-11-28 00:10:00+00:00,257.0,253.0,10.3,12.16,,47.59359,-54.27349
2017-11-28 00:20:00+00:00,265.0,261.0,10.89,12.76,,47.59359,-54.27349
2017-11-28 00:30:00+00:00,271.0,268.0,9.98,11.16,,47.59359,-54.27349
2017-11-28 00:40:00+00:00,265.0,255.0,9.84,11.25,,47.59359,-54.27349
2017-11-28 00:50:00+00:00,259.0,258.0,9.95,11.14,,47.59359,-54.27349
2017-11-28 01:00:00+00:00,257.0,258.0,8.2,10.21,,47.59359,-54.27349
2017-11-28 01:10:00+00:00,272.0,271.0,9.58,11.0,,47.59359,-54.27349
2017-11-28 01:20:00+00:00,260.0,264.0,11.36,13.32,,47.59359,-54.27349
2017-11-28 01:30:00+00:00,259.0,258.0,10.83,12.7,,47.59359,-54.27349
2017-11-28 01:40:00+00:00,262.0,263.0,10.65,11.93,,47.59359,-54.27349
2017-11-28 01:50:00+00:00,261.0,258.0,10.76,12.03,,47.59359,-54.27349
2017-11-28 02:00:00+00:00,262.0,258.0,9.54,11.56,,47.59359,-54.27349
2017-11-28 02:10:00+00:00,254.0,252.0,10.26,11.89,,47.59359,-54.27349
2017-11-28 02:20:00+00:00,260.0,260.0,9.7,10.84,,47.59359,-54.27349
2017-11-28 02:30:00+00:00,258.0,261.0,10.54,11.42,,47.59359,-54.27349
2017-11-28 02:40:00+00:00,250.0,259.0,9.16,10.5,,47.59359,-54.27349
2017-11-28 02:50:00+00:00,253.0,257.0,9.42,11.11,,47.59359,-54.27349
2017-11-28 03:00:00+00:00,257.0,254.0,9.52,10.79,,47.59359,-54.27349
2017-11-28 03:10:00+00:00,251.0,249.0,9.13,10.74,,47.59359,-54.27349
2017-11-28 03:20:00+00:00,253.0,252.0,9.18,10.58,,47.59359,-54.27349
2017-11-28 03:30:00+00:00,260.0,261.0,8.98,10.71,,47.59359,-54.27349
2017-11-28 03:40:00+00:00,257.0,258.0,9.41,10.58,,47.59359,-54.27349
2017-11-28 03:50:00+00:00,255.0,253.0,8.99,10.0,,47.59359,-54.27349
2017-11-28 04:00:00+00:00,263.0,259.0,9.1,10.79,,47.59359,-54.27349
2017-11-28 04:10:00+00:00,262.0,269.0,10.42,11.89,,47.59359,-54.27349
2017-11-28 04:20:00+00:00,264.0,260.0,10.99,13.25,,47.59359,-54.27349
2017-11-28 04:30:00+00:00,272.0,268.0,9.58,10.77,,47.59359,-54.27349
2017-11-28 04:40:00+00:00,277.0,273.0,7.47,9.52,,47.59359,-54.27349
2017-11-28 04:50:00+00:00,285.0,288.0,5.28,6.24,,47.59359,-54.27349
2017-11-28 05:00:00+00:00,286.0,282.0,7.24,8.77,,47.59359,-54.27349
2017-11-28 05:10:00+00:00,285.0,284.0,5.72,7.26,,47.59359,-54.27349
2017-11-28 05:20:00+00:00,284.0,286.0,6.39,7.75,,47.59359,-54.27349
2017-11-28 05:30:00+00:00,288.0,287.0,7.16,8.27,,47.59359,-54.27349
2017-11-28 05:40:00+00:00,282.0,286.0,6.31,7.77,,47.59359,-54.27349
2017-11-28 05:50:00+00:00,294.0,296.0,5.57,6.6,,47.59359,-54.27349
2017-11-28 06:00:00+00:00,288.0,290.0,5.86,7.12,,47.59359,-54.27349
2017-11-28 06:10:00+00:00,289.0,289.0,6.0,6.95,,47.59359,-54.27349
2017-11-28 06:20:00+00:00,289.0,289.0,5.65,6.97,,47.59359,-54.27349
2017-11-28 06:30:00+00:00,290.0,298.0,6.3,7.17,,47.59359,-54.27349
2017-11-28 06:40:00+00:00,297.0,298.0,5.27,6.04,,47.59359,-54.27349
2017-11-28 06:50:00+00:00,305.0,299.0,4.41,5.51,,47.59359,-54.27349
2017-11-28 07:00:00+00:00,310.0,312.0,4.27,5.08,,47.59359,-54.27349
2017-11-28 07:10:00+00:00,310.0,307.0,3.62,4.37,,47.59359,-54.27349
2017-11-28 07:20:00+00:00,310.0,313.0,3.65,4.68,,47.59359,-54.27349
2017-11-28 07:30:00+00:00,322.0,314.0,3.08,3.57,,47.59359,-54.27349
2017-11-28 07:40:00+00:00,304.0,308.0,3.38,4.38,,47.59359,-54.27349
2017-11-28 07:50:00+00:00,313.0,310.0,4.08,4.75,,47.59359,-54.27349
2017-11-28 08:00:00+00:00,328.0,331.0,3.32,3.88,,47.59359,-54.27349
2017-11-28 08:10:00+00:00,327.0,331.0,2.49,3.12,,47.59359,-54.27349
2017-11-28 08:20:00+00:00,299.0,291.0,2.21,2.78,,47.59359,-54.27349
2017-11-28 08:30:00+00:00,327.0,330.0,2.74,3.17,,47.59359,-54.27349
2017-11-28 08:40:00+00:00,282.0,288.0,2.55,3.14,,47.59359,-54.27349
2017-11-28 08:50:00+00:00,298.0,289.0,2.39,2.9,,47.59359,-54.27349
2017-11-28 09:00:00+00:00,302.0,289.0,2.59,3.32,,47.59359,-54.27349
2017-11-28 09:10:00+00:00,298.0,301.0,2.89,3.37,,47.59359,-54.27349
2017-11-28 09:20:00+00:00,295.0,290.0,3.02,3.66,,47.59359,-54.27349
2017-11-28 09:30:00+00:00,292.0,298.0,4.62,6.16,,47.59359,-54.27349
2017-11-28 09:40:00+00:00,294.0,302.0,4.11,6.0,,47.59359,-54.27349
2017-11-28 09:50:00+00:00,309.0,320.0,4.33,5.34,,47.59359,-54.27349
2017-11-28 10:00:00+00:00,313.0,309.0,4.47,5.28,,47.59359,-54.27349
2017-11-28 10:10:00+00:00,295.0,292.0,3.7,4.29,,47.59359,-54.27349
2017-11-28 10:20:00+00:00,320.0,321.0,3.57,4.1,,47.59359,-54.27349
2017-11-28 10:30:00+00:00,308.0,308.0,3.61,4.47,,47.59359,-54.27349
2017-11-28 10:40:00+00:00,306.0,304.0,3.48,4.02,,47.59359,-54.27349
2017-11-28 10:50:00+00:00,307.0,298.0,3.87,5.08,,47.59359,-54.27349
2017-11-28 11:00:00+00:00,309.0,309.0,4.28,5.05,,47.59359,-54.27349
2017-11-28 11:10:00+00:00,318.0,315.0,5.0,5.83,,47.59359,-54.27349
2017-11-28 11:20:00+00:00,326.0,332.0,4.85,5.99,,47.59359,-54.27349
2017-11-28 11:30:00+00:00,314.0,318.0,4.63,5.47,,47.59359,-54.27349
2017-11-28 11:40:00+00:00,320.0,324.0,5.21,6.18,,47.59359,-54.27349
2017-11-28 11:50:00+00:00,320.0,319.0,5.87,6.94,,47.59359,-54.27349
2017-11-28 12:00:00+00:00,326.0,322.0,5.07,6.27,,47.59359,-54.27349
2017-11-28 12:10:00+00:00,316.0,313.0,5.17,6.3,,47.59359,-54.27349
2017-11-28 12:20:00+00:00,309.0,312.0,4.74,6.04,,47.59359,-54.27349
2017-11-28 12:30:00+00:00,312.0,322.0,3.62,5.75,,47.59359,-54.27349
2017-11-28 12:40:00+00:00,338.0,329.0,2.78,4.33,,47.59359,-54.27349
2017-11-28 12:50:00+00:00,328.0,323.0,4.0,4.68,,47.59359,-54.27349
2017-11-28 13:00:00+00:00,347.0,347.0,5.03,5.77,,47.59359,-54.27349
2017-11-28 13:10:00+00:00,347.0,350.0,4.49,5.29,,47.59359,-54.27349
2017-11-28 13:20:00+00:00,340.0,338.0,4.36,5.42,,47.59359,-54.27349
2017-11-28 13:30:00+00:00,333.0,345.0,5.35,6.78,,47.59359,-54.27349
2017-11-28 13:40:00+00:00,338.0,345.0,5.89,6.89,,47.59359,-54.27349
2017-11-28 13:50:00+00:00,325.0,323.0,6.17,7.64,,47.59359,-54.27349
2017-11-28 14:00:00+00:00,337.0,336.0,7.65,8.85,,47.59359,-54.27349
2017-11-28 14:10:00+00:00,339.0,339.0,5.51,7.04,,47.59359,-54.27349
2017-11-28 14:20:00+00:00,344.0,346.0,6.94,7.91,,47.59359,-54.27349
2017-11-28 14:30:00+00:00,333.0,336.0,7.47,8.82,,47.59359,-54.27349
2017-11-28 14:40:00+00:00,355.0,354.0,6.62,8.5,,47.59359,-54.27349
2017-11-28 14:50:00+00:00,345.0,340.0,7.63,8.66,,47.59359,-54.27349
2017-11-28 15:00:00+00:00,359.0,358.0,7.85,8.7,,47.59359,-54.27349
2017-11-28 15:10:00+00:00,356.0,352.0,7.45,8.62,,47.59359,-54.27349
2017-11-28 15:20:00+00:00,352.0,348.0,6.23,7.47,,47.59359,-54.27349
2017-11-28 15:30:00+00:00,333.0,327.0,5.42,6.64,,47.59359,-54.27349
2017-11-28 15:40:00+00:00,357.0,356.0,7.68,8.78,,47.59359,-54.27349
2017-11-28 15:50:00+00:00,7.0,359.0,5.54,6.78,,47.59359,-54.27349
2017-11-28 16:00:00+00:00,331.0,342.0,8.26,8.88,,47.59359,-54.27349
2017-11-28 16:10:00+00:00,336.0,332.0,7.12,7.99,,47.59359,-54.27349
2017-11-28 16:20:00+00:00,329.0,323.0,5.78,7.12,,47.59359,-54.27349
2017-11-28 16:30:00+00:00,353.0,354.0,6.98,8.67,,47.59359,-54.27349
2017-11-28 16:40:00+00:00,342.0,343.0,8.33,9.9,,47.59359,-54.27349
2017-11-28 16:50:00+00:00,328.0,341.0,5.72,6.93,,47.59359,-54.27349
2017-11-28 17:00:00+00:00,344.0,334.0,6.11,8.6,,47.59359,-54.27349
2017-11-28 17:10:00+00:00,0.0,5.0,5.73,6.36,,47.59359,-54.27349
2017-11-28 17:20:00+00:00,348.0,354.0,7.58,9.4,,47.59359,-54.27349
2017-11-28 17:30:00+00:00,10.0,19.0,8.27,9.77,,47.59359,-54.27349
2017-11-28 17:40:00+00:00,341.0,339.0,8.74,10.56,,47.59359,-54.27349
2017-11-28 17:50:00+00:00,344.0,343.0,9.4,10.52,,47.59359,-54.27349
2017-11-28 18:00:00+00:00,347.0,353.0,9.24,13.48,,47.59359,-54.27349
2017-11-28 18:10:00+00:00,341.0,339.0,9.22,10.87,,47.59359,-54.27349
2017-11-28 18:20:00+00:00,358.0,358.0,9.44,11.05,,47.59359,-54.27349
2017-11-28 18:30:00+00:00,355.0,352.0,9.25,10.99,,47.59359,-54.27349
2017-11-28 18:40:00+00:00,347.0,353.0,8.69,9.91,,47.59359,-54.27349
2017-11-28 18:50:00+00:00,350.0,354.0,9.23,11.17,,47.59359,-54.27349
2017-11-28 19:00:00+00:00,351.0,341.0,6.65,7.93,,47.59359,-54.27349
2017-11-28 19:10:00+00:00,340.0,339.0,11.07,13.05,,47.59359,-54.27349
2017-11-28 19:20:00+00:00,347.0,345.0,8.22,10.06,,47.59359,-54.27349
2017-11-28 19:30:00+00:00,5.0,2.0,8.62,10.14,,47.59359,-54.27349
2017-11-28 19:40:00+00:00,350.0,335.0,8.51,10.23,,47.59359,-54.27349
2017-11-28 19:50:00+00:00,350.0,346.0,10.05,11.51,,47.59359,-54.27349
2017-11-28 20:00:00+00:00,352.0,358.0,8.96,11.4,,47.59359,-54.27349
2017-11-28 20:10:00+00:00,352.0,345.0,10.35,11.58,,47.59359,-54.27349
2017-11-28 20:20:00+00:00,351.0,352.0,8.77,10.0,,47.59359,-54.27349
2017-11-28 20:30:00+00:00,339.0,339.0,9.03,10.07,,47.59359,-54.27349
2017-11-28 20:40:00+00:00,1.0,3.0,8.36,9.76,,47.59359,-54.27349
2017-11-28 20:50:00+00:00,350.0,353.0,9.74,10.85,,47.59359,-54.27349
2017-11-28 21:00:00+00:00,348.0,343.0,7.44,8.76,,47.59359,-54.27349
2017-11-28 21:10:00+00:00,351.0,352.0,9.78,10.99,,47.59359,-54.27349
2017-11-28 21:20:00+00:00,340.0,334.0,8.89,10.21,,47.59359,-54.27349
2017-11-28 21:30:00+00:00,355.0,359.0,9.65,11.48,,47.59359,-54.27349
2017-11-28 21:40:00+00:00,2.0,359.0,9.09,10.78,,47.59359,-54.27349
2017-11-28 21:50:00+00:00,356.0,355.0,7.43,8.84,,47.59359,-54.27349
2017-11-28 22:00:00+00:00,351.0,0.0,7.06,8.42,,47.59359,-54.27349
2017-11-28 22:10:00+00:00,0.0,0.0,8.51,10.74,,47.59359,-54.27349
2017-11-28 22:20:00+00:00,18.0,22.0,7.68,9.46,,47.59359,-54.27349
2017-11-28 22:30:00+00:00,354.0,349.0,7.82,9.14,,47.59359,-54.27349
2017-11-28 22:40:00+00:00,359.0,357.0,7.51,8.73,,47.59359,-54.27349
2017-11-28 22:50:00+00:00,0.0,354.0,6.15,7.72,,47.59359,-54.27349
2017-11-28 23:00:00+00:00,357.0,354.0,7.54,9.46,,47.59359,-54.27349
2017-11-28 23:10:00+00:00,349.0,352.0,7.61,8.32,,47.59359,-54.27349
2017-11-28 23:20:00+00:00,347.0,342.0,8.45,9.72,,47.59359,-54.27349
2017-11-28 23:30:00+00:00,0.0,1.0,8.26,9.32,,47.59359,-54.27349
2017-11-28 23:40:00+00:00,350.0,354.0,7.61,9.36,,47.59359,-54.27349
2017-11-28 23:50:00+00:00,353.0,357.0,7.14,8.5,,47.59359,-54.27349
